Location: ?????
(55.8833°N, 37.6500°E)
Time: 18:12:28
(UTC+00:00)

STARLINK-1056 - Pass Details

Date: 13 July 2020
Orbit: 549 x 550 km, 53.0° (Epoch: 08 August)

Event Time Altitude Azimuth Distance (km) Brightness Sun altitude
Rises 19:32:58 0° 280° (W) 2,722 7.8 -8.2°
Reaches altitude 10° 19:35:27 10° 268° (W) 1,826 6.6 -8.4°
Maximum altitude 19:38:55 26° 211° (SSW) 1,110 4.9 -8.6°
Enters shadow 19:41:59 12° 158° (SSE) 1,703 5.4 -8.8°
